PAA103 CYYZ-CYVR

Flight info

Callsign PAA103
Flight time N/A
Altitude 38000
Route URSAL4 KASED DCT VACAY DCT RIMBE DCT KP15G DCT CENVI DCT KP21A DCT PETBO DCT MUSRA/N0480F400 DCT BEVEL DCT AMENA DCT FIRNI DCT YXC DCT BOOTH CANUC6
Aircraft B742/H-SDFHIRWXY/L

Departure

Time N/A
Airport Toronto Pearson International Airport (CYYZ)

Arrival

Time 2026-05-03 22:16
Airport Vancouver International Airport (CYVR)
Time Latitude Longitude Altitude Speed Heading
2026-05-03 20:15 48.88887 -102.99934 37696 ft 385 kts 284°
2026-05-03 20:16 48.90635 -103.15163 37491 ft 375 kts 284°
2026-05-03 20:16 48.92497 -103.31689 37284 ft 377 kts 284°
2026-05-03 20:16 48.92929 -103.35574 37301 ft 379 kts 284°
2026-05-03 20:17 48.93897 -103.43334 37554 ft 380 kts 286°
2026-05-03 20:17 48.94392 -103.47247 37681 ft 383 kts 285°
2026-05-03 20:17 48.94864 -103.51207 37711 ft 389 kts 284°
2026-05-03 20:18 48.95757 -103.59306 37707 ft 391 kts 284°
2026-05-03 20:18 48.96589 -103.67273 37693 ft 382 kts 283°
2026-05-03 20:19 48.97405 -103.75198 37700 ft 387 kts 283°
2026-05-03 20:19 48.98245 -103.83248 37698 ft 390 kts 283°
2026-05-03 20:20 48.99099 -103.91286 37710 ft 389 kts 283°
2026-05-03 20:20 48.99910 -103.99310 37716 ft 390 kts 282°
2026-05-03 20:21 49.00628 -104.07376 37720 ft 388 kts 282°
2026-05-03 20:21 49.01313 -104.15453 37724 ft 390 kts 282°
2026-05-03 20:22 49.01990 -104.23590 37720 ft 392 kts 282°
2026-05-03 20:22 49.02655 -104.31709 37712 ft 390 kts 282°
2026-05-03 20:23 49.03310 -104.39780 37714 ft 390 kts 282°
2026-05-03 20:23 49.03964 -104.47897 37712 ft 393 kts 282°
2026-05-03 20:24 49.04615 -104.56065 37714 ft 390 kts 281°
2026-05-03 20:24 49.05250 -104.64127 37719 ft 389 kts 282°
2026-05-03 20:25 49.05891 -104.72290 37730 ft 392 kts 281°
2026-05-03 20:25 49.06524 -104.80448 37734 ft 393 kts 281°
2026-05-03 20:26 49.07150 -104.88614 37734 ft 388 kts 281°
2026-05-03 20:26 49.07766 -104.96695 37739 ft 393 kts 281°
2026-05-03 20:27 49.08397 -105.05014 37744 ft 404 kts 281°
2026-05-03 20:27 49.09029 -105.13474 37739 ft 407 kts 281°
2026-05-03 20:28 49.09649 -105.21905 37744 ft 402 kts 281°
2026-05-03 20:28 49.10256 -105.30215 37752 ft 403 kts 281°
2026-05-03 20:29 49.10867 -105.38633 37753 ft 403 kts 281°
2026-05-03 20:29 49.11468 -105.47036 37756 ft 403 kts 281°
2026-05-03 20:30 49.12066 -105.55466 37752 ft 404 kts 281°
2026-05-03 20:30 49.12652 -105.63819 37759 ft 403 kts 281°
2026-05-03 20:31 49.13240 -105.72277 37759 ft 407 kts 280°
2026-05-03 20:31 49.13821 -105.80742 37763 ft 405 kts 280°
2026-05-03 20:32 49.14393 -105.89159 37774 ft 404 kts 279°
2026-05-03 20:32 49.14959 -105.97576 37773 ft 405 kts 280°
2026-05-03 20:33 49.15523 -106.06068 37776 ft 406 kts 280°
2026-05-03 20:33 49.16081 -106.14552 37777 ft 406 kts 280°
2026-05-03 20:34 49.16627 -106.22977 37792 ft 405 kts 280°
2026-05-03 20:34 49.17174 -106.31467 37806 ft 408 kts 280°
2026-05-03 20:35 49.17714 -106.39986 37801 ft 404 kts 280°
2026-05-03 20:35 49.18243 -106.48408 37802 ft 406 kts 279°
2026-05-03 20:36 49.18771 -106.56918 37806 ft 407 kts 279°
2026-05-03 20:36 49.19289 -106.65371 37803 ft 408 kts 279°
2026-05-03 20:37 49.19803 -106.73894 37802 ft 407 kts 279°
2026-05-03 20:37 49.20313 -106.82428 37807 ft 409 kts 279°
2026-05-03 20:38 49.20917 -106.90974 37793 ft 409 kts 282°
2026-05-03 20:38 49.21737 -106.99432 37795 ft 407 kts 282°
2026-05-03 20:39 49.22614 -107.07861 37802 ft 407 kts 283°
2026-05-03 20:39 49.23512 -107.16354 37793 ft 407 kts 283°
2026-05-03 20:40 49.24397 -107.24734 37802 ft 406 kts 283°
2026-05-03 20:40 49.25288 -107.33203 37807 ft 410 kts 283°
2026-05-03 20:41 49.26176 -107.41732 37800 ft 408 kts 283°
2026-05-03 20:41 49.27052 -107.50196 37805 ft 407 kts 283°
2026-05-03 20:42 49.27921 -107.58646 37811 ft 411 kts 282°
2026-05-03 20:42 49.28792 -107.67198 37809 ft 409 kts 282°
2026-05-03 20:43 49.29645 -107.75629 37803 ft 409 kts 282°
2026-05-03 20:43 49.30506 -107.84194 37810 ft 408 kts 282°
2026-05-03 20:44 49.31337 -107.92554 37822 ft 402 kts 282°
2026-05-03 20:44 49.32166 -108.00939 37834 ft 405 kts 282°
2026-05-03 20:45 49.32922 -108.08617 37836 ft 407 kts 282°
2026-05-03 20:45 49.33670 -108.16293 37835 ft 404 kts 282°
2026-05-03 20:45 49.34077 -108.20496 37958 ft 406 kts 282°
2026-05-03 20:46 49.34487 -108.24748 37865 ft 404 kts 282°
2026-05-03 20:46 49.35286 -108.33086 37844 ft 399 kts 282°
2026-05-03 20:47 49.36081 -108.41409 37849 ft 404 kts 282°
2026-05-03 20:47 49.36879 -108.49844 37846 ft 404 kts 282°
2026-05-03 20:48 49.37667 -108.58273 37854 ft 403 kts 282°
2026-05-03 20:48 49.38451 -108.66690 37846 ft 405 kts 281°
2026-05-03 20:49 49.39230 -108.75143 37844 ft 404 kts 281°
2026-05-03 20:49 49.39999 -108.83551 37849 ft 403 kts 281°
2026-05-03 20:50 49.40768 -108.92028 37853 ft 405 kts 281°
2026-05-03 20:50 49.41526 -109.00460 37866 ft 403 kts 281°
2026-05-03 20:51 49.42277 -109.08893 37861 ft 404 kts 281°
2026-05-03 20:51 49.43018 -109.17283 37867 ft 403 kts 281°
2026-05-03 20:52 49.43760 -109.25736 37866 ft 404 kts 281°
2026-05-03 20:52 49.44495 -109.34177 37876 ft 405 kts 281°
2026-05-03 20:53 49.45223 -109.42639 37875 ft 404 kts 281°
2026-05-03 20:53 49.45950 -109.51135 37884 ft 412 kts 281°
2026-05-03 20:54 49.46697 -109.59926 37882 ft 426 kts 281°
2026-05-03 20:54 49.47457 -109.68976 37880 ft 438 kts 281°
2026-05-03 20:54 49.47841 -109.73583 37882 ft 444 kts 281°
2026-05-03 20:55 49.48620 -109.82999 37878 ft 454 kts 280°
2026-05-03 20:55 49.49402 -109.92581 37885 ft 459 kts 280°
2026-05-03 20:56 49.49991 -110.02292 37903 ft 463 kts 277°
2026-05-03 20:56 49.50358 -110.12049 37907 ft 464 kts 277°
2026-05-03 20:57 49.50658 -110.21877 37914 ft 465 kts 276°
2026-05-03 20:57 49.50939 -110.31709 37911 ft 465 kts 276°
2026-05-03 20:58 49.51210 -110.41512 37915 ft 465 kts 276°
2026-05-03 20:58 49.51474 -110.51322 37912 ft 466 kts 276°
2026-05-03 20:59 49.51732 -110.61193 37912 ft 466 kts 276°
2026-05-03 20:59 49.51980 -110.71025 37914 ft 467 kts 276°
2026-05-03 21:00 49.52181 -110.79240 37605 ft 468 kts 276°
2026-05-03 21:00 49.52337 -110.85796 37879 ft 466 kts 276°
2026-05-03 21:00 49.52453 -110.90738 38146 ft 468 kts 275°
2026-05-03 21:01 49.52567 -110.95661 37938 ft 471 kts 276°
2026-05-03 21:01 49.52679 -111.00658 37906 ft 470 kts 276°
2026-05-03 21:01 49.52895 -111.10603 37901 ft 470 kts 275°
2026-05-03 21:02 49.53102 -111.20461 37901 ft 469 kts 275°
2026-05-03 21:02 49.53303 -111.30437 37907 ft 470 kts 275°
2026-05-03 21:03 49.53495 -111.40356 37914 ft 470 kts 275°
2026-05-03 21:03 49.53677 -111.50227 37954 ft 469 kts 276°
2026-05-03 21:04 49.53852 -111.60194 37999 ft 469 kts 276°
2026-05-03 21:04 49.54017 -111.70059 38043 ft 470 kts 275°
2026-05-03 21:05 49.54175 -111.80051 38092 ft 471 kts 275°
2026-05-03 21:05 49.54366 -111.90008 38138 ft 471 kts 276°
2026-05-03 21:06 49.54613 -111.99976 38021 ft 474 kts 276°
2026-05-03 21:06 49.54871 -112.09972 37930 ft 474 kts 276°
2026-05-03 21:07 49.55123 -112.19982 37930 ft 474 kts 276°
2026-05-03 21:07 49.55367 -112.29967 37926 ft 475 kts 276°
2026-05-03 21:08 49.55602 -112.40002 37924 ft 475 kts 276°
2026-05-03 21:08 49.55830 -112.50098 37922 ft 476 kts 276°
2026-05-03 21:09 49.56046 -112.60078 37918 ft 476 kts 276°
2026-05-03 21:09 49.56255 -112.70166 37917 ft 470 kts 275°
2026-05-03 21:10 49.56352 -112.75089 37916 ft 457 kts 275°
2026-05-03 21:10 49.56441 -112.79799 37913 ft 446 kts 275°
2026-05-03 21:10 49.56626 -112.89290 37921 ft 450 kts 275°
2026-05-03 21:11 49.56805 -112.98840 37921 ft 455 kts 275°
2026-05-03 21:11 49.56971 -113.08385 37925 ft 449 kts 275°
2026-05-03 21:12 49.57126 -113.17841 37935 ft 443 kts 275°
2026-05-03 21:12 49.57276 -113.27214 37947 ft 444 kts 275°
2026-05-03 21:13 49.57420 -113.36589 37960 ft 448 kts 275°
2026-05-03 21:13 49.57555 -113.46101 37976 ft 449 kts 275°
2026-05-03 21:14 49.57682 -113.55627 37993 ft 448 kts 275°
2026-05-03 21:14 49.57801 -113.65062 37987 ft 448 kts 274°
2026-05-03 21:15 49.57893 -113.72833 37988 ft 449 kts 274°
2026-05-03 21:15 49.57999 -113.82365 37990 ft 449 kts 274°
2026-05-03 21:16 49.58097 -113.91827 37994 ft 448 kts 274°
2026-05-03 21:16 49.58187 -114.01308 37987 ft 448 kts 274°
2026-05-03 21:17 49.58269 -114.10785 37998 ft 448 kts 274°
2026-05-03 21:17 49.58344 -114.20268 38011 ft 450 kts 274°
2026-05-03 21:18 49.58411 -114.29750 38029 ft 451 kts 274°
2026-05-03 21:18 49.58470 -114.39289 38040 ft 450 kts 274°
2026-05-03 21:19 49.58522 -114.48858 38045 ft 450 kts 274°
2026-05-03 21:19 49.58565 -114.58366 38048 ft 451 kts 274°
2026-05-03 21:20 49.58600 -114.67915 38052 ft 451 kts 274°
2026-05-03 21:20 49.58628 -114.77499 38058 ft 452 kts 274°
2026-05-03 21:21 49.58649 -114.87023 38052 ft 452 kts 273°
2026-05-03 21:21 49.58662 -114.96629 38053 ft 454 kts 274°
2026-05-03 21:22 49.58666 -115.06210 38050 ft 453 kts 274°
2026-05-03 21:22 49.58553 -115.15826 38051 ft 455 kts 271°
2026-05-03 21:23 49.58305 -115.25419 38044 ft 457 kts 271°
2026-05-03 21:23 49.58008 -115.35101 38045 ft 457 kts 271°
2026-05-03 21:24 49.57697 -115.44738 38031 ft 457 kts 271°
2026-05-03 21:24 49.57376 -115.54442 38010 ft 460 kts 271°
2026-05-03 21:25 49.57045 -115.64172 37994 ft 459 kts 271°
2026-05-03 21:25 49.56707 -115.73861 37968 ft 461 kts 270°
2026-05-03 21:26 49.56358 -115.83637 37981 ft 459 kts 270°
2026-05-03 21:26 49.56007 -115.93108 38018 ft 439 kts 270°
2026-05-03 21:27 49.55667 -116.02325 38057 ft 440 kts 271°
2026-05-03 21:27 49.55567 -116.11695 38059 ft 444 kts 275°
2026-05-03 21:28 49.55680 -116.21058 38055 ft 442 kts 275°
2026-05-03 21:28 49.55843 -116.30402 38059 ft 441 kts 276°
2026-05-03 21:29 49.56010 -116.39709 38059 ft 442 kts 276°
2026-05-03 21:29 49.56172 -116.49088 38062 ft 443 kts 276°
2026-05-03 21:30 49.56326 -116.58441 38063 ft 443 kts 276°
2026-05-03 21:30 49.56470 -116.67760 38066 ft 441 kts 275°
2026-05-03 21:31 49.56610 -116.77116 38062 ft 443 kts 275°
2026-05-03 21:31 49.56741 -116.86455 38062 ft 443 kts 275°
2026-05-03 21:32 49.56866 -116.95870 38066 ft 444 kts 275°
2026-05-03 21:32 49.56982 -117.05245 38069 ft 445 kts 275°
2026-05-03 21:33 49.57091 -117.14662 38065 ft 446 kts 275°
2026-05-03 21:33 49.57193 -117.24099 38053 ft 446 kts 275°
2026-05-03 21:34 49.57287 -117.33541 38040 ft 445 kts 275°
2026-05-03 21:34 49.57373 -117.42956 38026 ft 447 kts 275°
2026-05-03 21:35 49.57452 -117.52391 38021 ft 447 kts 276°
2026-05-03 21:35 49.57523 -117.61880 38041 ft 448 kts 276°
2026-05-03 21:36 49.57587 -117.71310 38062 ft 449 kts 275°
2026-05-03 21:36 49.57643 -117.80859 38069 ft 449 kts 275°
2026-05-03 21:37 49.57691 -117.90295 38054 ft 448 kts 275°
2026-05-03 21:37 49.57732 -117.99789 38036 ft 452 kts 275°
2026-05-03 21:38 49.57765 -118.09380 38029 ft 452 kts 275°
2026-05-03 21:38 49.57790 -118.18966 38030 ft 452 kts 275°
2026-05-03 21:39 49.57808 -118.28532 38036 ft 453 kts 275°
2026-05-03 21:39 49.57818 -118.38116 38040 ft 452 kts 276°
2026-05-03 21:40 49.57820 -118.47675 38043 ft 453 kts 275°
2026-05-03 21:40 49.57814 -118.57250 38039 ft 455 kts 275°
2026-05-03 21:41 49.57799 -118.66887 38059 ft 456 kts 275°
2026-05-03 21:41 49.57776 -118.76526 38059 ft 457 kts 275°
2026-05-03 21:42 49.57745 -118.86205 38068 ft 457 kts 275°
2026-05-03 21:42 49.57706 -118.95860 38064 ft 459 kts 275°
2026-05-03 21:43 49.57660 -119.05541 38060 ft 459 kts 275°
2026-05-03 21:43 49.57603 -119.15259 38047 ft 457 kts 275°
2026-05-03 21:44 49.57541 -119.24978 38071 ft 460 kts 275°
2026-05-03 21:44 49.57469 -119.34713 38051 ft 460 kts 275°
2026-05-03 21:45 49.57405 -119.42660 38058 ft 460 kts 275°
2026-05-03 21:45 49.57318 -119.52403 38035 ft 461 kts 275°
2026-05-03 21:46 49.57223 -119.62187 38018 ft 463 kts 275°
2026-05-03 21:46 49.57120 -119.71993 37897 ft 464 kts 275°
2026-05-03 21:47 49.57007 -119.81766 37837 ft 462 kts 275°
2026-05-03 21:47 49.56949 -119.86648 37691 ft 463 kts 275°
2026-05-03 21:47 49.56888 -119.91577 37579 ft 464 kts 275°
2026-05-03 21:48 49.56765 -120.00820 37527 ft 463 kts 275°
2026-05-03 21:48 49.56699 -120.05694 37316 ft 466 kts 275°
2026-05-03 21:48 49.56631 -120.10660 36972 ft 472 kts 275°
2026-05-03 21:49 49.56560 -120.15728 36525 ft 480 kts 275°
2026-05-03 21:49 49.56487 -120.20778 36120 ft 487 kts 275°
2026-05-03 21:49 49.56408 -120.25997 35783 ft 490 kts 275°
2026-05-03 21:49 49.56325 -120.31154 35451 ft 488 kts 275°
2026-05-03 21:50 49.56238 -120.36254 35120 ft 485 kts 275°
2026-05-03 21:50 49.56150 -120.41359 34790 ft 483 kts 275°
2026-05-03 21:50 49.56060 -120.46448 34470 ft 478 kts 275°
2026-05-03 21:50 49.55971 -120.51469 34147 ft 476 kts 275°
2026-05-03 21:51 49.55881 -120.56506 33845 ft 477 kts 275°
2026-05-03 21:51 49.55790 -120.61516 33550 ft 474 kts 275°
2026-05-03 21:51 49.55696 -120.66466 33244 ft 469 kts 274°
2026-05-03 21:51 49.55600 -120.71466 32936 ft 466 kts 274°
2026-05-03 21:52 49.55504 -120.76385 32620 ft 466 kts 274°
2026-05-03 21:52 49.55407 -120.81268 32318 ft 464 kts 273°
2026-05-03 21:52 49.55306 -120.86119 32017 ft 461 kts 273°
2026-05-03 21:52 49.55203 -120.90975 31559 ft 456 kts 273°
2026-05-03 21:53 49.55101 -120.95734 30936 ft 452 kts 272°
2026-05-03 21:53 49.54996 -121.00548 30318 ft 448 kts 272°
2026-05-03 21:53 49.54892 -121.05236 29741 ft 443 kts 272°
2026-05-03 21:53 49.54787 -121.09843 29220 ft 438 kts 272°
2026-05-03 21:54 49.54680 -121.14487 28575 ft 435 kts 271°
2026-05-03 21:54 49.54573 -121.19051 28002 ft 432 kts 271°
2026-05-03 21:54 49.54466 -121.23574 27444 ft 427 kts 271°
2026-05-03 21:54 49.54357 -121.28083 26889 ft 423 kts 271°
2026-05-03 21:55 49.54248 -121.32493 26262 ft 416 kts 271°
2026-05-03 21:55 49.54139 -121.36874 25171 ft 412 kts 271°
2026-05-03 21:55 49.54030 -121.41168 24071 ft 407 kts 271°
2026-05-03 21:55 49.53921 -121.45403 23057 ft 400 kts 270°
2026-05-03 21:56 49.53811 -121.49550 22060 ft 393 kts 271°
2026-05-03 21:56 49.53701 -121.53695 21016 ft 388 kts 271°
2026-05-03 21:56 49.53593 -121.57700 20013 ft 383 kts 270°
2026-05-03 21:56 49.53486 -121.61700 19020 ft 377 kts 270°
2026-05-03 21:57 49.53376 -121.65655 18037 ft 372 kts 270°
2026-05-03 21:57 49.53268 -121.69532 17061 ft 369 kts 269°
2026-05-03 21:57 49.53159 -121.73404 16118 ft 363 kts 269°
2026-05-03 21:57 49.53050 -121.77192 15140 ft 360 kts 269°
2026-05-03 21:58 49.52943 -121.80930 14184 ft 357 kts 270°
2026-05-03 21:58 49.52833 -121.84691 13541 ft 355 kts 269°
2026-05-03 21:58 49.52723 -121.88434 13142 ft 349 kts 269°
2026-05-03 21:58 49.52616 -121.92082 12744 ft 343 kts 269°
2026-05-03 21:59 49.52506 -121.95701 12378 ft 338 kts 269°
2026-05-03 21:59 49.52399 -121.99213 11989 ft 333 kts 269°
2026-05-03 21:59 49.52293 -122.02683 11594 ft 328 kts 269°
2026-05-03 21:59 49.52288 -122.06130 11188 ft 320 kts 276°
2026-05-03 22:00 49.52330 -122.09486 10803 ft 316 kts 264°
2026-05-03 22:00 49.51746 -122.12647 10415 ft 314 kts 245°
2026-05-03 22:00 49.50563 -122.15404 10049 ft 310 kts 231°
2026-05-03 22:00 49.49192 -122.17868 9679 ft 306 kts 229°
2026-05-03 22:01 49.47818 -122.20345 9325 ft 303 kts 230°
2026-05-03 22:01 49.46514 -122.22762 9091 ft 295 kts 231°
2026-05-03 22:01 49.45256 -122.25131 8982 ft 282 kts 231°
2026-05-03 22:01 49.44064 -122.27386 8983 ft 274 kts 231°
2026-05-03 22:02 49.42892 -122.29604 8980 ft 265 kts 231°
2026-05-03 22:02 49.41738 -122.31789 8996 ft 264 kts 231°
2026-05-03 22:02 49.40579 -122.33950 8983 ft 264 kts 230°
2026-05-03 22:02 49.39402 -122.36059 8975 ft 264 kts 229°
2026-05-03 22:03 49.38202 -122.38162 8984 ft 263 kts 229°
2026-05-03 22:03 49.37006 -122.40243 8999 ft 263 kts 229°
2026-05-03 22:03 49.35797 -122.42332 8998 ft 265 kts 228°
2026-05-03 22:03 49.34582 -122.44415 8987 ft 265 kts 228°
2026-05-03 22:04 49.33376 -122.46475 8979 ft 263 kts 228°
2026-05-03 22:04 49.32161 -122.48548 8990 ft 265 kts 228°
2026-05-03 22:04 49.30946 -122.50619 8978 ft 264 kts 228°
2026-05-03 22:04 49.29733 -122.52683 8975 ft 264 kts 228°
2026-05-03 22:05 49.28517 -122.54755 8968 ft 264 kts 228°
2026-05-03 22:05 49.27296 -122.56839 8948 ft 265 kts 228°
2026-05-03 22:05 49.26077 -122.58920 8612 ft 270 kts 228°
2026-05-03 22:05 49.24817 -122.61069 8206 ft 273 kts 229°
2026-05-03 22:06 49.23564 -122.63204 7778 ft 271 kts 229°
2026-05-03 22:06 49.22337 -122.65295 7323 ft 268 kts 228°
2026-05-03 22:06 49.21097 -122.67336 6773 ft 265 kts 215°
2026-05-03 22:06 49.19458 -122.68395 6271 ft 260 kts 188°
2026-05-03 22:07 49.17691 -122.68795 5711 ft 259 kts 185°
2026-05-03 22:07 49.15917 -122.69107 5209 ft 256 kts 185°
2026-05-03 22:07 49.14227 -122.69599 4838 ft 247 kts 205°
2026-05-03 22:07 49.12980 -122.71203 4510 ft 238 kts 241°
2026-05-03 22:08 49.12583 -122.73506 4156 ft 223 kts 278°
2026-05-03 22:08 49.13036 -122.75635 3973 ft 202 kts 302°
2026-05-03 22:08 49.13741 -122.77326 3940 ft 180 kts 304°
2026-05-03 22:08 49.14423 -122.78756 3932 ft 156 kts 309°
2026-05-03 22:09 49.15049 -122.79977 3947 ft 144 kts 309°
2026-05-03 22:09 49.15584 -122.81216 3933 ft 141 kts 297°
2026-05-03 22:09 49.15975 -122.82568 3924 ft 140 kts 294°
2026-05-03 22:10 49.16539 -122.85426 3705 ft 140 kts 283°
2026-05-03 22:10 49.16711 -122.86880 3634 ft 140 kts 281°
2026-05-03 22:10 49.16867 -122.88341 3531 ft 141 kts 281°
2026-05-03 22:10 49.17025 -122.89794 3357 ft 140 kts 282°
2026-05-03 22:11 49.17188 -122.91236 3154 ft 139 kts 281°
2026-05-03 22:11 49.17350 -122.92655 2969 ft 137 kts 281°
2026-05-03 22:11 49.17516 -122.94085 2805 ft 136 kts 282°
2026-05-03 22:11 49.17680 -122.95484 2637 ft 135 kts 282°
2026-05-03 22:12 49.17843 -122.96874 2464 ft 134 kts 282°
2026-05-03 22:12 49.18006 -122.98270 2290 ft 133 kts 282°
2026-05-03 22:12 49.18168 -122.99654 2116 ft 134 kts 282°
2026-05-03 22:12 49.18327 -123.01026 1942 ft 132 kts 282°
2026-05-03 22:13 49.18486 -123.02402 1775 ft 132 kts 282°
2026-05-03 22:13 49.18643 -123.03765 1591 ft 132 kts 282°
2026-05-03 22:13 49.18799 -123.05112 1432 ft 130 kts 283°
2026-05-03 22:13 49.18953 -123.06447 1262 ft 128 kts 282°
2026-05-03 22:14 49.19107 -123.07780 1084 ft 127 kts 282°
2026-05-03 22:14 49.19259 -123.09087 901 ft 125 kts 282°
2026-05-03 22:14 49.19408 -123.10372 754 ft 123 kts 282°
2026-05-03 22:14 49.19548 -123.11629 609 ft 122 kts 282°
2026-05-03 22:15 49.19701 -123.12909 443 ft 121 kts 282°
2026-05-03 22:15 49.19790 -123.13705 339 ft 120 kts 282°
2026-05-03 22:15 49.19931 -123.14949 202 ft 121 kts 281°
2026-05-03 22:15 49.20074 -123.16200 43 ft 120 kts 282°
2026-05-03 22:16 49.20206 -123.17361 21 ft 95 kts 281°
2026-05-03 22:16 49.20286 -123.18044 21 ft 43 kts 280°
2026-05-03 22:16 49.20308 -123.18353 21 ft 21 kts 265°
2026-05-03 22:16 49.20272 -123.18566 20 ft 20 kts 251°
2026-05-03 22:17 49.20231 -123.18765 20 ft 17 kts 252°
2026-05-03 22:17 49.20226 -123.18785 20 ft 0 kts 250°
2026-05-03 22:19 49.20209 -123.18837 20 ft 13 kts 229°
2026-05-03 22:19 49.20170 -123.18829 20 ft 8 kts 120°
2026-05-03 22:20 49.20145 -123.18692 20 ft 16 kts 99°
2026-05-03 22:20 49.20108 -123.18530 19 ft 16 kts 141°
2026-05-03 22:20 49.20040 -123.18405 18 ft 15 kts 105°
2026-05-03 22:20 49.20020 -123.18239 18 ft 16 kts 99°
2026-05-03 22:21 49.20010 -123.18182 17 ft 4 kts 110°
2026-05-03 22:21 49.19994 -123.18147 18 ft 3 kts 142°
2026-05-03 22:21 49.19975 -123.18137 17 ft 2 kts 172°
2026-05-03 22:21 49.19959 -123.18139 17 ft 1 kts 191°
2026-05-03 22:22 49.19945 -123.18143 17 ft 0 kts 190°